Theta_e
353 352 352 353 354 353 350 353 347 352 351 351 349 353 353 353 353 354 352 352 354 351 351 351 353 353 351 354 354 350 354 350 354 353 352 355 355 355 353 355 354 352 347
354 354 354 354 353 354 353 353 353 349 350 352 353 352 353 353 353 352 353 354 353 352 355 354 353 353 354 350 350 351 352 352 351 353 353 352 352 354 355 355 352 349 348
354 355 356 355 356 354 355 352 353 353 353 353 354 353 353 354 354 351 352 354 354 353 354 354 353 351 354 351 353 352 354 354 354 352 353 353 353 354 355 353 351 351 347
354 355 354 355 354 355 353 355 354 355 354 352 352 354 353 354 355 355 352 354 353 355 355 354 355 354 354 351 352 351 353 352 353 354 352 353 354 354 355 352 350 350 348
356 354 354 353 354 353 353 352 354 355 354 353 352 353 354 354 354 354 354 354 355 356 353 354 353 353 353 353 353 353 353 353 353 353 352 352 352 352 355 352 349 347 346
357 357 355 355 355 354 354 354 354 355 353 352 353 354 354 356 354 353 353 354 354 353 355 355 354 352 354 352 353 352 352 352 350 351 351 352 353 349 352 352 352 350 346
359 358 356 354 354 354 353 352 352 352 351 351 352 352 356 356 354 353 351 350 352 353 352 352 352 352 352 352 352 352 351 351 348 347 352 354 353 351 351 352 354 349 347
359 358 356 356 357 356 355 355 355 353 351 351 351 353 353 353 353 352 350 351 350 350 350 350 351 349 351 352 353 353 353 352 352 352 348 345 345 345 348 352 354 353 349
360 359 358 358 357 355 353 352 351 351 349 349 349 350 351 351 350 350 350 350 351 350 349 350 350 350 351 350 350 352 352 352 353 353 353 352 353 351 350 351 353 353 353
359 358 357 355 354 352 351 352 350 349 350 351 350 351 351 351 350 348 349 347 348 347 348 350 349 350 351 352 353 352 352 353 351 352 350 353 352 353 354 353 352 353 354
355 354 354 353 352 349 349 349 349 349 350 349 349 349 349 350 350 349 349 348 347 350 350 349 351 351 351 350 351 350 351 352 352 352 352 352 351 352 351 351 351 351 351
354 354 353 352 350 352 351 351 347 346 346 347 347 349 349 346 347 348 348 347 348 348 348 350 349 348 348 347 345 343 342 343 343 344 347 349 350 349 348 348 349 350 350
353 353 354 349 350 350 347 343 343 345 347 347 349 349 344 343 345 345 345 343 342 342 345 346 343 342 341 340 340 340 339 340 342 343 344 344 345 345 344 344 346 346 346
351 350 348 347 345 342 341 341 341 341 345 342 344 346 344 343 343 342 340 339 339 338 338 339 339 338 337 337 338 338 337 335 335 335 336 336 336 337 336 337 338 338 336
348 347 345 343 341 341 337 335 336 335 334 340 339 339 340 341 338 337 337 338 337 337 338 339 338 337 335 334 332 330 328 327 328 328 328 328 327 326 326 326 326 325 325
348 345 342 341 338 340 337 331 330 330 329 333 334 334 334 333 330 331 331 333 333 335 337 337 335 335 333 330 327 326 325 323 322 322 321 320 319 319 319 319 320 320 319
342 341 339 337 338 339 338 336 333 327 327 328 330 330 331 329 330 330 332 333 334 334 335 336 335 334 333 330 327 325 323 323 322 320 319 318 317 317 317 316 316 316 316
339 336 334 335 335 335 336 338 336 335 333 330 328 328 329 329 329 330 331 331 335 334 334 336 335 335 334 332 330 327 326 324 323 320 319 318 317 316 316 315 315 315 315
338 335 337 335 335 335 335 337 337 336 335 336 331 327 327 328 328 328 329 331 335 337 335 334 333 333 333 333 331 330 328 326 324 323 322 321 319 318 316 315 315 316 316
342 339 339 336 336 336 336 335 336 336 336 335 335 335 331 328 328 329 330 332 335 335 336 335 334 334 334 332 331 330 328 327 326 325 323 322 319 318 316 314 313 313 314
338 335 333 336 338 336 334 335 336 336 335 335 335 336 334 333 333 335 335 335 333 334 334 334 334 334 335 334 331 330 329 328 327 326 324 322 321 321 319 317 315 314 314
335 338 339 338 336 337 335 334 335 336 334 334 334 335 336 335 334 334 333 333 333 333 332 332 332 334 334 332 332 330 330 329 327 327 326 325 324 323 324 323 322 321 320
336 337 339 338 336 336 335 335 334 334 334 334 333 335 334 333 333 332 332 333 333 332 332 331 331 333 333 330 330 330 330 328 328 328 328 326 325 325 325 323 320 319 319
336 337 338 337 336 334 334 334 333 332 332 332 332 333 334 334 333 330 329 331 333 332 331 332 332 332 332 330 328 327 327 327 327 327 328 327 326 325 322 320 319 318 318
338 337 335 332 335 333 333 332 333 333 331 331 330 329 329 329 329 328 327 326 330 332 331 330 332 332 331 332 328 328 327 325 325 325 324 324 322 322 321 319 318 318 318
338 338 327 330 335 332 331 332 331 331 330 329 329 329 329 329 329 328 327 325 327 332 331 331 330 330 331 331 328 329 325 324 324 324 323 322 321 321 320 319 318 317 317
Wind_Speed
27 26 24 24 23 22 22 16 22 13 16 16 11 14 10 6 10 10 11 12 10 11 14 9 8 10 12 14 10 7 12 3 2 3 8 10 12 10 11 11 11 10 8
28 27 28 25 24 23 23 21 18 21 20 15 13 12 13 13 14 14 16 14 12 14 14 13 13 11 13 14 12 8 8 6 7 8 4 12 10 10 9 9 4 8 13
27 27 25 26 25 24 26 26 24 23 21 19 19 19 18 19 19 18 18 18 17 15 16 16 16 14 15 14 11 12 9 10 12 9 11 11 10 13 14 11 11 5 13
28 26 26 26 27 28 25 29 26 26 25 25 23 20 22 22 21 20 21 22 20 18 18 17 17 17 18 16 17 15 14 13 11 12 16 16 14 12 14 17 16 18 13
24 26 26 28 25 25 24 23 26 25 23 23 23 23 22 21 21 24 24 22 22 21 20 18 19 19 20 17 18 16 16 16 13 15 17 14 9 12 19 18 17 17 20
19 21 21 19 21 22 20 18 18 19 20 21 23 21 22 23 24 28 26 23 23 23 22 19 19 20 17 17 21 21 22 17 16 18 20 17 18 21 23 22 17 14 7
18 19 21 19 19 18 19 20 20 20 20 20 21 21 22 23 25 27 22 27 23 21 21 22 21 19 23 25 23 23 24 25 26 25 22 23 19 13 14 18 20 22 18
19 18 17 17 16 15 14 15 14 15 16 14 15 17 18 21 23 25 25 25 24 23 21 17 20 23 24 15 15 22 22 23 24 26 30 33 32 31 23 20 22 26 24
18 17 17 16 14 13 15 15 12 12 13 15 15 16 17 19 21 23 26 26 20 23 23 21 20 20 21 21 21 21 21 23 19 23 27 31 32 27 25 21 21 18 14
19 17 15 15 14 15 14 14 13 12 13 13 14 15 16 17 16 18 20 22 23 23 21 22 25 26 22 21 21 22 21 21 21 23 26 21 23 32 31 30 28 22 19
19 17 16 15 16 13 12 11 10 8 7 8 10 11 11 11 11 12 12 15 17 16 19 16 15 18 14 15 21 22 21 18 19 20 20 23 25 25 26 27 30 34 28
19 17 15 13 11 10 11 9 6 6 8 10 11 7 6 8 9 7 7 6 11 14 15 9 9 9 11 12 14 16 18 18 19 16 18 20 22 27 30 29 27 29 30
17 14 16 13 8 12 7 5 5 10 10 11 10 6 3 5 5 5 6 6 8 10 9 8 8 11 14 12 9 10 13 12 13 15 17 19 19 18 19 18 17 16 19
19 16 14 11 10 7 6 8 8 9 11 7 2 3 3 3 5 4 4 3 2 2 1 2 3 6 6 7 8 8 8 10 12 14 16 21 23 25 27 25 22 20 17
18 15 13 10 10 8 2 6 4 4 3 3 2 3 5 9 8 6 5 3 4 2 4 3 4 5 6 6 7 8 9 11 11 12 13 12 12 12 11 11 10 9 5
19 17 14 16 13 12 9 5 3 5 4 8 6 4 4 3 4 4 6 6 8 11 7 7 6 6 6 6 7 8 10 11 11 10 10 10 9 9 8 6 6 4 1
19 19 16 7 16 15 15 14 9 2 3 6 7 6 4 6 7 9 10 9 6 3 2 7 5 4 4 5 5 7 7 9 9 9 10 10 9 8 8 9 8 8 12
12 12 12 12 8 8 8 12 9 10 7 6 10 9 7 7 8 6 4 3 2 3 4 3 4 7 6 5 3 4 5 6 7 8 8 8 9 9 8 10 12 15 15
17 15 12 12 11 10 10 12 12 11 9 8 9 9 9 9 8 8 7 8 7 7 8 3 1 4 5 7 6 4 4 5 5 6 5 5 4 4 6 8 9 10 13
16 10 12 7 14 11 9 10 6 16 13 13 12 12 12 10 9 10 10 10 12 5 5 5 6 6 4 7 8 6 6 4 5 5 4 3 4 4 5 6 7 10 11
18 10 10 15 15 16 13 11 12 15 12 15 16 12 14 13 13 11 11 9 10 9 6 11 9 9 8 8 6 4 5 6 6 6 7 7 7 8 8 9 10 12 11
21 14 16 19 15 20 16 11 9 8 14 17 19 20 18 16 14 16 14 15 15 16 14 8 9 11 12 11 11 10 9 9 9 10 11 12 13 15 15 15 15 17 19
14 14 17 18 21 16 16 16 17 15 14 12 13 15 15 14 15 16 21 19 16 13 10 13 12 12 9 11 13 12 12 13 13 13 16 17 18 17 17 10 8 6 6
15 15 19 20 28 17 13 11 11 10 14 12 19 20 20 20 20 14 8 7 20 12 9 10 14 13 11 13 16 14 16 18 17 17 18 19 21 19 11 7 12 11 12
20 20 13 21 38 18 16 16 19 21 17 13 7 8 12 16 12 9 7 9 12 10 9 12 14 13 16 14 16 18 18 15 15 15 11 14 11 13 12 15 13 11 13
23 26 33 33 27 19 13 14 14 14 21 21 19 18 18 16 15 13 11 8 8 14 14 15 16 15 14 15 18 19 14 14 12 15 16 13 13 14 16 13 13 14 17
Wind_Direction
200 204 207 211 214 221 230 233 229 234 233 249 216 208 225 231 229 236 251 252 269 245 253 274 281 273 285 285 335 342 302 275 319 253 153 152 160 175 171 197 220 245 252
198 208 204 210 214 214 221 233 228 236 241 250 253 244 239 240 241 240 244 246 252 251 247 257 258 258 272 278 289 262 272 275 275 286 297 197 194 192 198 193 232 228 247
197 204 205 206 211 221 213 216 223 226 232 236 242 237 237 238 243 241 243 245 253 253 246 249 253 254 261 263 284 294 307 296 275 276 270 248 209 199 190 200 207 235 223
196 203 205 208 212 216 226 213 215 218 224 232 234 244 238 236 241 247 245 242 242 247 253 253 259 255 251 255 264 270 278 280 284 277 266 270 218 213 211 203 211 217 217
198 197 204 212 216 224 225 220 215 218 226 233 238 242 246 242 244 243 245 249 245 242 246 253 254 251 252 260 252 259 268 272 278 278 266 275 211 212 213 223 220 227 236
201 197 202 211 214 221 227 228 232 223 225 234 236 240 246 246 244 249 241 236 241 244 246 250 251 257 255 262 257 256 256 259 265 270 276 276 267 249 244 232 205 207 223
198 202 202 207 213 220 232 238 239 239 239 244 247 252 248 247 251 255 255 250 242 245 249 251 255 255 258 250 254 256 258 258 257 261 258 264 273 257 247 246 222 212 221
195 198 197 204 204 209 217 227 239 246 247 248 252 254 260 260 260 262 259 259 252 248 250 257 258 259 267 273 265 258 261 267 264 261 256 260 264 267 252 243 243 234 239
184 192 198 197 200 210 219 226 228 230 239 248 259 263 265 267 269 267 271 261 251 250 256 257 256 258 263 272 275 276 268 263 265 269 271 273 268 265 257 250 236 224 229
182 185 190 193 200 212 214 211 219 241 247 252 256 258 265 270 272 270 268 261 252 252 254 255 251 251 255 262 264 269 274 273 273 272 275 277 272 264 257 250 247 226 228
175 174 176 185 197 204 212 219 221 228 239 249 261 267 270 268 265 268 275 240 238 250 252 259 244 243 255 267 267 266 265 271 272 269 273 275 272 268 263 264 261 251 242
159 163 165 163 174 179 176 175 186 227 243 252 252 258 251 266 261 271 285 280 244 249 251 262 256 246 264 281 291 294 287 283 285 284 278 273 273 278 280 276 267 259 257
153 158 148 162 188 153 160 197 243 235 239 245 235 160 198 251 266 269 271 275 278 271 251 256 289 300 301 310 311 314 310 312 292 275 274 275 283 291 305 305 297 294 283
148 167 162 173 175 169 187 207 230 273 234 199 112 160 199 255 252 269 249 273 343 2 212 283 305 333 8 358 343 345 354 331 321 315 316 302 305 304 302 301 298 292 280
153 166 154 178 174 166 126 93 118 321 355 95 211 255 225 249 209 224 233 180 119 167 106 82 58 41 32 20 7 352 353 344 343 336 330 326 325 323 321 318 311 297 275
164 163 174 174 183 181 151 122 198 253 218 197 186 204 233 198 142 159 161 178 156 135 138 118 84 63 53 46 29 21 15 17 17 17 19 19 15 10 8 14 351 341 259
171 175 172 203 176 176 174 160 151 118 120 168 174 160 172 160 140 137 129 136 157 174 153 141 146 120 84 78 65 50 41 33 32 37 46 48 51 50 52 52 62 86 87
150 152 151 188 173 191 198 171 171 159 186 189 197 192 186 163 165 163 169 185 234 227 253 196 180 163 142 129 111 87 72 70 65 65 65 70 74 70 75 87 97 97 91
163 177 191 174 173 188 198 190 181 187 210 172 164 210 208 201 200 210 231 246 274 261 196 217 136 96 168 163 150 147 134 126 118 109 104 95 89 94 104 112 113 121 124
205 171 160 194 171 173 198 215 192 177 179 199 198 217 198 199 220 233 237 247 273 250 253 238 233 236 222 169 163 163 161 153 168 150 153 150 153 152 156 163 172 166 163
213 207 184 219 183 175 183 196 208 197 174 200 218 220 193 200 224 217 227 233 256 266 281 258 244 236 225 202 201 224 201 190 212 199 182 197 205 214 215 230 238 239 222
198 207 218 236 242 167 173 188 226 234 185 214 210 213 206 212 242 241 227 236 239 242 241 259 258 244 224 213 208 205 218 226 235 232 217 214 228 238 232 232 236 250 258
216 225 232 233 241 187 177 192 193 213 229 189 223 183 205 224 236 234 231 222 216 222 232 236 238 246 228 234 221 216 210 222 226 224 226 229 233 239 255 235 244 279 303
234 235 237 234 252 175 184 194 236 226 242 219 205 214 205 213 222 223 239 212 185 189 209 233 241 248 238 223 227 238 240 244 238 235 232 237 241 251 234 258 239 238 245
224 222 243 251 262 183 191 198 204 216 209 225 235 212 226 232 231 225 222 215 209 197 220 225 231 247 244 246 237 242 245 245 254 260 229 238 254 270 259 228 255 260 249
217 205 196 204 228 177 201 217 230 227 191 196 208 208 211 224 221 214 210 208 223 201 208 216 221 226 236 235 237 250 245 259 251 239 247 250 263 244 258 253 246 258 258